Data No.,UTC Date,UTC Time,Latitude,Longitude,Course(deg),Temp(degC),Sal(psu)
21,2002/9/12,5:25:00,04-21.1100N,148-26.6200E,324,29.183,33.8689
22,2002/9/12,5:26:00,04-21.2800N,148-26.5000E,324,29.185,33.8895
23,2002/9/12,5:27:00,04-21.4400N,148-26.3900E,325,29.187,33.8928
24,2002/9/12,5:28:00,04-21.6100N,148-26.2800E,326,29.188,33.8965
25,2002/9/12,5:29:00,04-21.8300N,148-26.1300E,324,29.177,33.8985
26,2002/9/12,5:30:00,04-22.0000N,148-25.9900E,317,29.2,33.8996
27,2002/9/12,5:31:00,04-22.1400N,148-25.8500E,316,29.183,33.9
28,2002/9/12,5:32:00,04-22.2700N,148-25.7300E,316,29.184,33.901
30,2002/9/12,5:34:00,04-22.6100N,148-25.4200E,317,29.21,33.9035
31,2002/9/12,5:35:00,04-22.7700N,148-25.2700E,317,29.22,33.9048
32,2002/9/12,5:36:00,04-22.9100N,148-25.1400E,317,29.224,33.906
33,2002/9/12,5:37:00,04-23.0800N,148-24.9800E,318,29.218,33.908
34,2002/9/12,5:38:00,04-23.2500N,148-24.8400E,322,29.211,33.9096
35,2002/9/12,5:39:00,04-23.3500N,148-24.7800E,325,29.202,33.9096
36,2002/9/12,5:40:00,04-23.6100N,148-24.6200E,330,29.19,33.9089
37,2002/9/12,5:41:00,04-23.8100N,148-24.5100E,329,29.183,33.9081
38,2002/9/12,5:42:00,04-23.9800N,148-24.4000E,328,29.183,33.9081
39,2002/9/12,5:43:00,04-24.1500N,148-24.2900E,328,29.185,33.9081
40,2002/9/12,5:44:00,04-24.3400N,148-24.1700E,328,29.183,33.9066
41,2002/9/12,5:45:00,04-24.5000N,148-24.0800E,328,29.187,33.9059
42,2002/9/12,5:46:00,04-24.7100N,148-23.9500E,329,29.206,33.9025
43,2002/9/12,5:47:00,04-24.8500N,148-23.8700E,328,29.208,33.8963
44,2002/9/12,5:48:00,04-25.0700N,148-23.7300E,327,29.206,33.8925
45,2002/9/12,5:49:00,04-25.2500N,148-23.6100E,326,29.195,33.8962
46,2002/9/12,5:50:00,04-25.4100N,148-23.5100E,326,29.181,33.8949
47,2002/9/12,5:51:00,04-25.6200N,148-23.3700E,328,29.17,33.8993
48,2002/9/12,5:52:00,04-25.7700N,148-23.2800E,328,29.17,33.9041
49,2002/9/12,5:53:00,04-25.9600N,148-23.1600E,328,29.182,33.906
50,2002/9/12,5:54:00,04-26.1700N,148-23.0400E,328,29.189,33.9095
51,2002/9/12,5:55:00,04-26.3500N,148-22.9300E,328,29.199,33.9096
52,2002/9/12,5:56:00,04-26.5300N,148-22.8200E,328,29.201,33.9098
53,2002/9/12,5:57:00,04-26.7100N,148-22.7000E,328,29.192,33.9104
54,2002/9/12,5:58:00,04-26.9000N,148-22.5900E,328,29.174,33.9137
55,2002/9/12,5:59:00,04-27.0900N,148-22.4700E,328,29.17,33.9146
56,2002/9/12,6:00:00,04-27.2600N,148-22.3700E,328,29.172,33.9143
57,2002/9/12,6:01:00,04-27.4600N,148-22.2400E,328,29.173,33.9137
58,2002/9/12,6:02:00,04-27.6100N,148-22.1600E,329,29.171,33.9113
59,2002/9/12,6:03:00,04-27.7800N,148-22.0500E,328,29.163,33.9083
60,2002/9/12,6:04:00,04-27.9300N,148-21.9600E,328,29.15,33.9029
61,2002/9/12,6:05:00,04-28.1900N,148-21.8000E,328,29.142,33.9
62,2002/9/12,6:06:00,04-28.3400N,148-21.7100E,328,29.141,33.898
63,2002/9/12,6:07:00,04-28.5200N,148-21.6000E,329,29.145,33.8974
64,2002/9/12,6:08:00,04-28.6800N,148-21.5000E,329,29.152,33.8973
65,2002/9/12,6:09:00,04-28.9300N,148-21.3500E,329,29.159,33.8968
66,2002/9/12,6:10:00,04-29.1400N,148-21.2300E,328,29.171,33.8967
67,2002/9/12,6:11:00,04-29.3000N,148-21.1300E,328,29.17,33.8975
68,2002/9/12,6:12:00,04-29.4100N,148-21.0700E,328,29.169,33.8993
69,2002/9/12,6:13:00,04-29.6900N,148-20.8900E,328,29.164,33.9003
70,2002/9/12,6:14:00,04-29.8700N,148-20.7800E,328,29.17,33.9014
71,2002/9/12,6:15:00,04-30.0700N,148-20.6600E,329,29.161,33.9017
72,2002/9/12,6:16:00,04-30.2400N,148-20.5600E,329,29.156,33.9024
73,2002/9/12,6:17:00,04-30.4000N,148-20.4600E,329,29.147,33.9017
74,2002/9/12,6:18:00,04-30.4900N,148-20.4100E,328,29.128,33.8984
75,2002/9/12,6:19:00,04-30.8000N,148-20.2200E,328,29.13,33.8953
76,2002/9/12,6:20:00,04-31.0000N,148-20.1100E,329,29.14,33.8906
77,2002/9/12,6:21:00,04-31.0700N,148-20.0600E,329,29.139,33.8899
78,2002/9/12,6:22:00,04-31.3500N,148-19.9000E,328,29.14,33.8913
79,2002/9/12,6:23:00,04-31.5500N,148-19.7800E,328,29.133,33.8926
80,2002/9/12,6:24:00,04-31.7100N,148-19.6800E,328,29.14,33.8936
81,2002/9/12,6:25:00,04-31.8800N,148-19.5700E,328,29.144,33.8965
82,2002/9/12,6:26:00,04-32.1100N,148-19.4400E,329,29.145,33.897
83,2002/9/12,6:27:00,04-32.3000N,148-19.3300E,329,29.15,33.8981
84,2002/9/12,6:28:00,04-32.4800N,148-19.2200E,329,29.145,33.9001
85,2002/9/12,6:29:00,04-32.5700N,148-19.1700E,329,29.131,33.8983
86,2002/9/12,6:30:00,04-32.8600N,148-19.0000E,329,29.126,33.8936
87,2002/9/12,6:31:00,04-33.0500N,148-18.8800E,329,29.126,33.8892
88,2002/9/12,6:32:00,04-33.2400N,148-18.7700E,328,29.115,33.8852
89,2002/9/12,6:33:00,04-33.3700N,148-18.6900E,328,29.107,33.8838
90,2002/9/12,6:34:00,04-33.6000N,148-18.5500E,328,29.104,33.8819
91,2002/9/12,6:35:00,04-33.7800N,148-18.4400E,329,29.101,33.8825
92,2002/9/12,6:36:00,04-33.9300N,148-18.3500E,329,29.086,33.8834
93,2002/9/12,6:37:00,04-34.1500N,148-18.2200E,328,29.064,33.8837
94,2002/9/12,6:38:00,04-34.3200N,148-18.1200E,328,29.066,33.8838
95,2002/9/12,6:39:00,04-34.5200N,148-18.0000E,328,29.081,33.8839
96,2002/9/12,6:40:00,04-34.6800N,148-17.9000E,329,29.094,33.8842
97,2002/9/12,6:41:00,04-34.9300N,148-17.7600E,329,29.103,33.8843
98,2002/9/12,6:42:00,04-35.1100N,148-17.6500E,328,29.101,33.8852
99,2002/9/12,6:43:00,04-35.3000N,148-17.5300E,328,29.1,33.8852
100,2002/9/12,6:44:00,04-35.4600N,148-17.4300E,328,29.095,33.8884
101,2002/9/12,6:45:00,04-35.6700N,148-17.3100E,328,29.094,33.8896
102,2002/9/12,6:46:00,04-35.8700N,148-17.1900E,329,29.093,33.8898
103,2002/9/12,6:47:00,04-36.0500N,148-17.0800E,329,29.098,33.8933
104,2002/9/12,6:48:00,04-36.2500N,148-16.9600E,328,29.097,33.8968
105,2002/9/12,6:49:00,04-36.3500N,148-16.9000E,328,29.113,33.8985
106,2002/9/12,6:50:00,04-36.5900N,148-16.7600E,329,29.122,33.9035
107,2002/9/12,6:51:00,04-36.7700N,148-16.6500E,329,29.124,33.9073
108,2002/9/12,6:52:00,04-36.9900N,148-16.5200E,329,29.133,33.9102
109,2002/9/12,6:53:00,04-37.1900N,148-16.4100E,329,29.128,33.9135
110,2002/9/12,6:54:00,04-37.4000N,148-16.2800E,329,29.122,33.9181
111,2002/9/12,6:55:00,04-37.5500N,148-16.1900E,328,29.141,33.9222
112,2002/9/12,6:56:00,04-37.6700N,148-16.1200E,329,29.126,33.9235
113,2002/9/12,6:57:00,04-37.9700N,148-15.9400E,329,29.112,33.924
114,2002/9/12,6:58:00,04-38.1600N,148-15.8300E,328,29.132,33.9218
115,2002/9/12,6:59:00,04-38.3000N,148-15.7400E,329,29.198,33.9198
116,2002/9/12,7:00:00,04-38.4400N,148-15.6600E,328,29.204,33.9205
117,2002/9/12,7:01:00,04-38.6400N,148-15.5400E,328,29.212,33.9161
118,2002/9/12,7:02:00,04-38.9100N,148-15.3700E,327,29.204,33.9095
119,2002/9/12,7:03:00,04-39.0900N,148-15.2600E,328,29.208,33.9065
120,2002/9/12,7:04:00,04-39.2800N,148-15.1500E,328,29.216,33.9084
121,2002/9/12,7:05:00,04-39.4700N,148-15.0300E,329,29.223,33.9095
122,2002/9/12,7:06:00,04-39.6400N,148-14.9300E,328,29.212,33.9069
123,2002/9/12,7:07:00,04-39.8400N,148-14.8100E,328,29.206,33.9029
124,2002/9/12,7:08:00,04-40.0400N,148-14.6800E,327,29.203,33.9002
125,2002/9/12,7:09:00,04-40.2200N,148-14.5700E,326,29.204,33.8988
126,2002/9/12,7:10:00,04-40.4000N,148-14.4500E,327,29.201,33.8982
127,2002/9/12,7:11:00,04-40.5500N,148-14.3500E,327,29.191,33.8965
128,2002/9/12,7:12:00,04-40.7600N,148-14.2300E,328,29.185,33.8961
129,2002/9/12,7:13:00,04-40.9800N,148-14.0900E,329,29.193,33.8955
130,2002/9/12,7:14:00,04-41.1700N,148-13.9900E,329,29.193,33.8952
131,2002/9/12,7:15:00,04-41.3500N,148-13.8800E,328,29.204,33.895
132,2002/9/12,7:16:00,04-41.5300N,148-13.7700E,327,29.207,33.894
133,2002/9/12,7:17:00,04-41.7300N,148-13.6300E,327,29.183,33.8933
134,2002/9/12,7:18:00,04-41.8900N,148-13.5300E,328,29.16,33.891
135,2002/9/12,7:19:00,04-42.1000N,148-13.4100E,329,29.16,33.8876
136,2002/9/12,7:20:00,04-42.3100N,148-13.2900E,329,29.152,33.8812
137,2002/9/12,7:21:00,04-42.4900N,148-13.1900E,329,29.143,33.881
138,2002/9/12,7:22:00,04-42.6900N,148-13.0700E,328,29.125,33.8833
139,2002/9/12,7:23:00,04-42.8700N,148-12.9600E,329,29.113,33.8823
140,2002/9/12,7:24:00,04-43.0700N,148-12.8400E,329,29.101,33.8853
141,2002/9/12,7:25:00,04-43.2000N,148-12.7600E,329,29.122,33.8875
142,2002/9/12,7:26:00,04-43.4500N,148-12.6200E,331,29.135,33.8879
143,2002/9/12,7:27:00,04-43.6300N,148-12.5200E,330,29.154,33.8866
144,2002/9/12,7:28:00,04-43.8300N,148-12.4100E,329,29.133,33.8865
145,2002/9/12,7:29:00,04-44.0200N,148-12.2900E,328,29.082,33.8916
146,2002/9/12,7:30:00,04-44.2100N,148-12.1900E,330,29.116,33.8972
147,2002/9/12,7:31:00,04-44.3900N,148-12.0800E,330,29.123,33.8938
148,2002/9/12,7:32:00,04-44.5700N,148-11.9800E,330,29.103,33.8891
149,2002/9/12,7:33:00,04-44.7000N,148-11.9100E,330,29.09,33.887
150,2002/9/12,7:34:00,04-44.9900N,148-11.7400E,329,29.064,33.889
151,2002/9/12,7:35:00,04-45.1500N,148-11.6400E,329,29.056,33.8896
152,2002/9/12,7:36:00,04-45.3600N,148-11.5200E,329,29.038,33.8887
153,2002/9/12,7:37:00,04-45.5500N,148-11.4100E,329,29.064,33.8893
154,2002/9/12,7:38:00,04-45.7400N,148-11.3000E,330,29.068,33.8904
155,2002/9/12,7:39:00,04-45.9100N,148-11.2100E,330,29.083,33.8943
156,2002/9/12,7:40:00,04-46.1300N,148-11.0800E,329,29.094,33.8995
157,2002/9/12,7:41:00,04-46.3200N,148-10.9700E,329,29.075,33.9054
158,2002/9/12,7:42:00,04-46.5000N,148-10.8600E,329,29.068,33.9129
159,2002/9/12,7:43:00,04-46.6100N,148-10.8000E,328,29.06,33.9158
160,2002/9/12,7:44:00,04-46.8400N,148-10.6600E,329,29.052,33.9149
161,2002/9/12,7:45:00,04-47.0200N,148-10.5600E,329,29.046,33.9138
162,2002/9/12,7:46:00,04-47.1600N,148-10.4700E,329,29.042,33.9112
163,2002/9/12,7:47:00,04-47.3000N,148-10.3900E,329,29.046,33.909
164,2002/9/12,7:48:00,04-47.6600N,148-10.1700E,328,29.043,33.9071
165,2002/9/12,7:49:00,04-47.8200N,148-10.0800E,328,29.034,33.907
166,2002/9/12,7:50:00,04-48.0200N,148-09.9500E,328,29.032,33.9072
167,2002/9/12,7:51:00,04-48.1800N,148-09.8600E,328,29.027,33.9064
168,2002/9/12,7:52:00,04-48.3300N,148-09.7600E,328,29.042,33.9055
169,2002/9/12,7:53:00,04-48.6000N,148-09.6000E,327,29.044,33.9043
170,2002/9/12,7:54:00,04-48.7800N,148-09.4800E,327,29.031,33.9033
171,2002/9/12,7:55:00,04-48.9700N,148-09.3600E,327,29.028,33.9051
172,2002/9/12,7:56:00,04-49.1700N,148-09.2400E,327,29.027,33.9056
173,2002/9/12,7:57:00,04-49.3400N,148-09.1300E,328,29.034,33.9067
174,2002/9/12,7:58:00,04-49.5400N,148-09.0000E,327,29.047,33.9101
175,2002/9/12,7:59:00,04-49.7200N,148-08.8900E,327,29.043,33.9102
176,2002/9/12,8:00:00,04-49.9100N,148-08.7600E,327,29.034,33.9121
177,2002/9/12,8:01:00,04-50.0900N,148-08.6500E,327,29.023,33.9117
178,2002/9/12,8:02:00,04-50.2900N,148-08.5200E,326,29.017,33.9119
179,2002/9/12,8:03:00,04-50.4800N,148-08.4000E,326,29.018,33.9122
181,2002/9/12,8:05:00,04-50.8500N,148-08.1600E,327,29.049,33.9151
182,2002/9/12,8:06:00,04-51.0000N,148-08.0700E,327,29.052,33.9165
183,2002/9/12,8:07:00,04-51.2300N,148-07.9200E,326,29.032,33.9188
184,2002/9/12,8:08:00,04-51.3900N,148-07.8200E,326,29.017,33.92
185,2002/9/12,8:09:00,04-51.6000N,148-07.6800E,326,29.025,33.9215
186,2002/9/12,8:10:00,04-51.7700N,148-07.5700E,327,29.032,33.9216
187,2002/9/12,8:11:00,04-51.9800N,148-07.4400E,327,29.039,33.9221
188,2002/9/12,8:12:00,04-52.1700N,148-07.3100E,326,29.044,33.9226
189,2002/9/12,8:13:00,04-52.3500N,148-07.2000E,326,29.037,33.9213
190,2002/9/12,8:14:00,04-52.5500N,148-07.0700E,327,29.043,33.9197
191,2002/9/12,8:15:00,04-52.7500N,148-06.9500E,327,29.066,33.9202
192,2002/9/12,8:16:00,04-52.9000N,148-06.8600E,327,29.063,33.9196
193,2002/9/12,8:17:00,04-53.0700N,148-06.7500E,327,29.05,33.9161
194,2002/9/12,8:18:00,04-53.2500N,148-06.6300E,327,29.048,33.912
195,2002/9/12,8:19:00,04-53.4500N,148-06.5100E,327,29.035,33.9089
196,2002/9/12,8:20:00,04-53.6900N,148-06.3500E,326,29.033,33.9062
197,2002/9/12,8:21:00,04-53.8700N,148-06.2400E,327,29.035,33.9058
198,2002/9/12,8:22:00,04-54.0500N,148-06.1300E,327,29.033,33.9056
199,2002/9/12,8:23:00,04-54.2200N,148-06.0200E,327,29.036,33.9051
200,2002/9/12,8:24:00,04-54.4200N,148-05.8900E,327,29.035,33.9046
201,2002/9/12,8:25:00,04-54.6300N,148-05.7500E,326,29.032,33.902
202,2002/9/12,8:26:00,04-54.7600N,148-05.6700E,327,29.027,33.9013
203,2002/9/12,8:27:00,04-54.9400N,148-05.5500E,327,29.025,33.9016
204,2002/9/12,8:28:00,04-55.1800N,148-05.4100E,327,29.027,33.9017
205,2002/9/12,8:29:00,04-55.3000N,148-05.3300E,327,29.037,33.9031
206,2002/9/12,8:30:00,04-55.5400N,148-05.1800E,327,29.033,33.9026
207,2002/9/12,8:31:00,04-55.7600N,148-05.0400E,327,29.026,33.9071
208,2002/9/12,8:32:00,04-55.9300N,148-04.9200E,326,29.018,33.9035
209,2002/9/12,8:33:00,04-56.0900N,148-04.8200E,326,29.01,33.9026
210,2002/9/12,8:34:00,04-56.2500N,148-04.7200E,327,29.01,33.9016
211,2002/9/12,8:35:00,04-56.4800N,148-04.5700E,327,29.038,33.902
212,2002/9/12,8:36:00,04-56.6900N,148-04.4400E,327,29.068,33.9036
213,2002/9/12,8:37:00,04-56.8800N,148-04.3200E,327,29.042,33.9149
214,2002/9/12,8:38:00,04-57.0500N,148-04.2000E,327,29.063,33.924
215,2002/9/12,8:39:00,04-57.2000N,148-04.1100E,327,29.061,33.9256
216,2002/9/12,8:40:00,04-57.4400N,148-03.9500E,326,29.046,33.9257
217,2002/9/12,8:41:00,04-57.6100N,148-03.8500E,327,29.049,33.9204
218,2002/9/12,8:42:00,04-57.8100N,148-03.7200E,327,29.041,33.912
219,2002/9/12,8:43:00,04-58.0100N,148-03.5900E,327,29.045,33.9081
220,2002/9/12,8:44:00,04-58.2000N,148-03.4700E,326,29.045,33.9066
221,2002/9/12,8:45:00,04-58.3300N,148-03.3900E,328,29.06,33.9048
222,2002/9/12,8:46:00,04-58.5800N,148-03.2300E,327,29.069,33.9073
223,2002/9/12,8:47:00,04-58.7500N,148-03.1200E,326,29.063,33.9138
224,2002/9/12,8:48:00,04-58.9400N,148-02.9900E,326,29.051,33.9177
225,2002/9/12,8:49:00,04-59.0600N,148-02.9100E,326,29.036,33.9176
226,2002/9/12,8:50:00,04-59.3200N,148-02.7500E,327,29.074,33.9137
227,2002/9/12,8:51:00,04-59.4600N,148-02.6600E,327,29.064,33.9062
228,2002/9/12,8:52:00,04-59.6500N,148-02.5400E,327,29.047,33.9095
229,2002/9/12,8:53:00,04-59.8300N,148-02.4200E,327,29.044,33.91
230,2002/9/12,8:54:00,05-00.0300N,148-02.3000E,327,29.04,33.9058
231,2002/9/12,8:55:00,05-00.2200N,148-02.1700E,326,29.033,33.9034
232,2002/9/12,8:56:00,05-00.4500N,148-02.0200E,326,29.032,33.9015
233,2002/9/12,8:57:00,05-00.6300N,148-01.9000E,327,29.052,33.898
234,2002/9/12,8:58:00,05-00.7900N,148-01.8000E,327,29.056,33.8968
235,2002/9/12,8:59:00,05-01.0200N,148-01.6500E,327,29.055,33.9073
236,2002/9/12,9:00:00,05-01.1600N,148-01.5600E,327,29.053,33.9147
237,2002/9/12,9:01:00,05-01.3900N,148-01.4200E,326,29.036,33.9158
238,2002/9/12,9:02:00,05-01.5700N,148-01.3000E,328,29.028,33.9094
239,2002/9/12,9:03:00,05-01.7600N,148-01.1800E,328,29.043,33.9054
240,2002/9/12,9:04:00,05-01.9500N,148-01.0700E,328,29.047,33.9035
241,2002/9/12,9:05:00,05-02.1500N,148-00.9500E,328,29.037,33.9062
242,2002/9/12,9:06:00,05-02.2200N,148-00.9000E,327,29.027,33.907
243,2002/9/12,9:07:00,05-02.5200N,148-00.7100E,327,29.003,33.9045
244,2002/9/12,9:08:00,05-02.6700N,148-00.6200E,327,28.997,33.9063
245,2002/9/12,9:09:00,05-02.9000N,148-00.4800E,328,28.998,33.9058
246,2002/9/12,9:10:00,05-03.0700N,148-00.3700E,327,29,33.9049
247,2002/9/12,9:11:00,05-03.2800N,148-00.2400E,327,29.005,33.9061
248,2002/9/12,9:12:00,05-03.4200N,148-00.1500E,327,29.009,33.909
249,2002/9/12,9:13:00,05-03.6200N,148-00.0300E,327,29.003,33.9109
250,2002/9/12,9:14:00,05-03.8500N,147-59.8900E,327,29,33.9135
251,2002/9/12,9:15:00,05-04.0400N,147-59.7600E,327,28.995,33.9106
252,2002/9/12,9:16:00,05-04.2200N,147-59.6500E,327,28.988,33.9081
253,2002/9/12,9:17:00,05-04.4200N,147-59.5300E,329,28.984,33.9079
254,2002/9/12,9:18:00,05-04.6100N,147-59.4100E,329,28.986,33.9056
255,2002/9/12,9:19:00,05-04.7600N,147-59.3300E,329,28.986,33.9044
256,2002/9/12,9:20:00,05-05.0000N,147-59.1800E,328,28.983,33.9049
257,2002/9/12,9:21:00,05-05.1700N,147-59.0800E,329,28.985,33.905
258,2002/9/12,9:22:00,05-05.3900N,147-58.9600E,330,28.999,33.908
259,2002/9/12,9:23:00,05-05.5800N,147-58.8500E,329,29.007,33.9107
260,2002/9/12,9:24:00,05-05.7300N,147-58.7500E,328,28.998,33.9105
261,2002/9/12,9:25:00,05-05.9400N,147-58.6200E,327,28.991,33.9088
262,2002/9/12,9:26:00,05-06.1400N,147-58.5000E,328,28.979,33.9099
263,2002/9/12,9:27:00,05-06.3000N,147-58.4000E,329,28.975,33.9093
264,2002/9/12,9:28:00,05-06.5100N,147-58.2800E,329,28.973,33.9077
265,2002/9/12,9:29:00,05-06.6700N,147-58.1800E,329,28.968,33.9079
266,2002/9/12,9:30:00,05-06.9100N,147-58.0400E,329,28.973,33.9096
267,2002/9/12,9:31:00,05-07.1200N,147-57.9200E,329,28.981,33.91
268,2002/9/12,9:32:00,05-07.2800N,147-57.8200E,328,28.98,33.9107
269,2002/9/12,9:33:00,05-07.4900N,147-57.6900E,329,28.972,33.9104
270,2002/9/12,9:34:00,05-07.6800N,147-57.5800E,328,28.978,33.9104
271,2002/9/12,9:35:00,05-07.8700N,147-57.4600E,328,28.988,33.9084
272,2002/9/12,9:36:00,05-08.0600N,147-57.3500E,328,28.981,33.9105
273,2002/9/12,9:37:00,05-08.2000N,147-57.2600E,328,28.975,33.9087
274,2002/9/12,9:38:00,05-08.4500N,147-57.1100E,328,28.976,33.9058
275,2002/9/12,9:39:00,05-08.6000N,147-57.0100E,329,28.978,33.9027
276,2002/9/12,9:40:00,05-08.7400N,147-56.9300E,329,28.972,33.8993
277,2002/9/12,9:41:00,05-09.0300N,147-56.7600E,328,28.969,33.8928
278,2002/9/12,9:42:00,05-09.1300N,147-56.7000E,328,28.966,33.8893
279,2002/9/12,9:43:00,05-09.4200N,147-56.5300E,328,28.971,33.884
280,2002/9/12,9:44:00,05-09.6000N,147-56.4100E,329,28.976,33.882
281,2002/9/12,9:45:00,05-09.7700N,147-56.3100E,328,28.98,33.8879
282,2002/9/12,9:46:00,05-09.9500N,147-56.2000E,328,28.978,33.8941
283,2002/9/12,9:47:00,05-10.1100N,147-56.1000E,328,28.982,33.9023
284,2002/9/12,9:48:00,05-10.3700N,147-55.9400E,328,28.978,33.9057
285,2002/9/12,9:49:00,05-10.5200N,147-55.8500E,328,28.975,33.9127
286,2002/9/12,9:50:00,05-10.7300N,147-55.7200E,328,28.965,33.9152
287,2002/9/12,9:51:00,05-10.9400N,147-55.5900E,327,28.958,33.9187
288,2002/9/12,9:52:00,05-11.0900N,147-55.5000E,328,28.959,33.9225
289,2002/9/12,9:53:00,05-11.3300N,147-55.3500E,328,28.963,33.9251
290,2002/9/12,9:54:00,05-11.5300N,147-55.2300E,328,28.961,33.9275
292,2002/9/12,9:56:00,05-11.8000N,147-55.0600E,328,28.959,33.9316
293,2002/9/12,9:57:00,05-12.1000N,147-54.8700E,327,28.959,33.9338
294,2002/9/12,9:58:00,05-12.2100N,147-54.8000E,327,28.962,33.9348
295,2002/9/12,9:59:00,05-12.4400N,147-54.6500E,328,28.958,33.9347
296,2002/9/12,10:00:00,05-12.6200N,147-54.5500E,328,28.959,33.9344
297,2002/9/12,10:01:00,05-12.8300N,147-54.4200E,328,28.959,33.9355
298,2002/9/12,10:02:00,05-13.0500N,147-54.2900E,328,28.961,33.9366
299,2002/9/12,10:03:00,05-13.2100N,147-54.2000E,329,28.973,33.9368
300,2002/9/12,10:04:00,05-13.4400N,147-54.0600E,329,28.976,33.9376
301,2002/9/12,10:05:00,05-13.6200N,147-53.9500E,328,28.97,33.9379
302,2002/9/12,10:06:00,05-13.8300N,147-53.8200E,328,28.967,33.9382
303,2002/9/12,10:07:00,05-14.0100N,147-53.7100E,328,28.962,33.9376
304,2002/9/12,10:08:00,05-14.1700N,147-53.6100E,327,28.954,33.9364
305,2002/9/12,10:09:00,05-14.3300N,147-53.5100E,326,28.954,33.934
306,2002/9/12,10:10:00,05-14.5700N,147-53.3500E,328,28.957,33.9325
307,2002/9/12,10:11:00,05-14.7200N,147-53.2700E,329,28.955,33.9316
308,2002/9/12,10:12:00,05-14.9000N,147-53.1600E,329,28.954,33.9326
310,2002/9/12,10:14:00,05-15.3500N,147-52.8900E,328,28.96,33.9317
311,2002/9/12,10:15:00,05-15.5000N,147-52.7900E,328,28.961,33.9302
312,2002/9/12,10:16:00,05-15.6600N,147-52.6900E,328,28.965,33.9311
313,2002/9/12,10:17:00,05-15.9100N,147-52.5400E,328,28.975,33.9317
314,2002/9/12,10:18:00,05-16.1100N,147-52.4200E,328,28.978,33.9314
315,2002/9/12,10:19:00,05-16.2800N,147-52.3200E,329,28.983,33.9323
316,2002/9/12,10:20:00,05-16.4900N,147-52.2000E,328,28.985,33.9318
317,2002/9/12,10:21:00,05-16.6100N,147-52.1200E,328,28.987,33.9314
318,2002/9/12,10:22:00,05-16.8800N,147-51.9600E,327,28.984,33.9318
319,2002/9/12,10:23:00,05-17.0100N,147-51.8800E,328,28.986,33.9319
320,2002/9/12,10:24:00,05-17.2700N,147-51.7300E,330,28.991,33.9314
321,2002/9/12,10:25:00,05-17.3800N,147-51.6700E,329,28.999,33.9322
322,2002/9/12,10:26:00,05-17.6500N,147-51.5000E,328,29.005,33.9328
323,2002/9/12,10:27:00,05-17.8000N,147-51.4100E,328,29.006,33.9348
324,2002/9/12,10:28:00,05-18.0100N,147-51.2800E,328,29.009,33.9345
325,2002/9/12,10:29:00,05-18.2200N,147-51.1500E,328,29.017,33.9341
326,2002/9/12,10:30:00,05-18.3900N,147-51.0500E,329,29.02,33.9349
327,2002/9/12,10:31:00,05-18.6000N,147-50.9200E,328,29.014,33.9353
328,2002/9/12,10:32:00,05-18.7800N,147-50.8100E,328,29.009,33.9354
329,2002/9/12,10:33:00,05-18.9500N,147-50.7100E,328,29.009,33.9356
330,2002/9/12,10:34:00,05-19.1300N,147-50.6000E,327,29.008,33.9351
331,2002/9/12,10:35:00,05-19.2900N,147-50.5000E,328,29.004,33.9345
332,2002/9/12,10:36:00,05-19.5600N,147-50.3400E,329,28.994,33.9344
333,2002/9/12,10:37:00,05-19.6700N,147-50.2800E,328,29.001,33.9348
334,2002/9/12,10:38:00,05-19.9400N,147-50.1100E,328,29.011,33.9342
335,2002/9/12,10:39:00,05-20.1300N,147-49.9900E,329,29.008,33.9355
336,2002/9/12,10:40:00,05-20.2300N,147-49.9400E,329,29.005,33.9363
337,2002/9/12,10:41:00,05-20.4900N,147-49.7700E,327,29.007,33.9357
338,2002/9/12,10:42:00,05-20.6800N,147-49.6600E,328,29.013,33.9354
339,2002/9/12,10:43:00,05-20.8400N,147-49.5600E,329,29.019,33.9366
340,2002/9/12,10:44:00,05-21.0900N,147-49.4200E,329,29.026,33.9384
341,2002/9/12,10:45:00,05-21.2700N,147-49.3000E,328,29.029,33.9399
342,2002/9/12,10:46:00,05-21.4300N,147-49.2000E,327,29.027,33.9406
343,2002/9/12,10:47:00,05-21.6300N,147-49.0800E,328,29.017,33.9417
344,2002/9/12,10:48:00,05-21.8500N,147-48.9500E,329,29.005,33.9417
345,2002/9/12,10:49:00,05-22.0300N,147-48.8400E,328,29.004,33.9408
346,2002/9/12,10:50:00,05-22.2300N,147-48.7100E,327,29.016,33.9403
347,2002/9/12,10:51:00,05-22.3900N,147-48.6100E,327,29.017,33.9401
348,2002/9/12,10:52:00,05-22.6100N,147-48.4800E,327,29.017,33.9403
349,2002/9/12,10:53:00,05-22.8000N,147-48.3600E,327,29.018,33.9413
350,2002/9/12,10:54:00,05-22.9800N,147-48.2400E,327,29.022,33.9409
351,2002/9/12,10:55:00,05-23.1800N,147-48.1100E,327,29.012,33.9408
352,2002/9/12,10:56:00,05-23.3400N,147-48.0100E,327,29.015,33.9404
353,2002/9/12,10:57:00,05-23.5500N,147-47.8800E,327,29.009,33.9402
354,2002/9/12,10:58:00,05-23.6500N,147-47.8200E,327,28.999,33.9395
355,2002/9/12,10:59:00,05-23.9400N,147-47.6400E,328,28.997,33.9381
356,2002/9/12,11:00:00,05-24.1400N,147-47.5100E,327,29.002,33.9367
357,2002/9/12,11:01:00,05-24.3200N,147-47.3900E,327,29.004,33.9366
358,2002/9/12,11:02:00,05-24.5100N,147-47.2700E,327,29,33.9361
359,2002/9/12,11:03:00,05-24.6600N,147-47.1800E,327,28.995,33.9354
360,2002/9/12,11:04:00,05-24.8900N,147-47.0300E,326,28.993,33.9342
361,2002/9/12,11:05:00,05-25.0800N,147-46.9100E,327,29.006,33.9332
362,2002/9/12,11:06:00,05-25.2800N,147-46.7900E,327,29.01,33.9323
363,2002/9/12,11:07:00,05-25.4700N,147-46.6600E,327,29.009,33.9313
364,2002/9/12,11:08:00,05-25.6400N,147-46.5500E,327,28.999,33.9308
365,2002/9/12,11:09:00,05-25.7700N,147-46.4700E,327,28.996,33.9293
366,2002/9/12,11:10:00,05-26.0200N,147-46.3100E,327,28.996,33.9268
367,2002/9/12,11:11:00,05-26.2000N,147-46.2000E,326,28.992,33.9244
368,2002/9/12,11:12:00,05-26.4100N,147-46.0600E,326,28.989,33.9222
369,2002/9/12,11:13:00,05-26.6100N,147-45.9300E,327,28.984,33.9186
370,2002/9/12,11:14:00,05-26.8100N,147-45.8000E,328,28.984,33.9172
371,2002/9/12,11:15:00,05-26.9900N,147-45.6900E,327,28.987,33.9168
372,2002/9/12,11:16:00,05-27.1600N,147-45.5900E,326,28.984,33.9125
373,2002/9/12,11:17:00,05-27.3800N,147-45.4400E,326,28.981,33.9135
374,2002/9/12,11:18:00,05-27.5700N,147-45.3100E,326,28.977,33.9128
375,2002/9/12,11:19:00,05-27.7300N,147-45.2100E,327,28.975,33.9057
376,2002/9/12,11:20:00,05-27.9500N,147-45.0700E,327,28.987,33.8933
377,2002/9/12,11:21:00,05-28.1200N,147-44.9700E,327,28.986,33.8921
378,2002/9/12,11:22:00,05-28.3300N,147-44.8300E,326,28.986,33.9001
379,2002/9/12,11:23:00,05-28.5300N,147-44.7000E,325,28.986,33.9054
380,2002/9/12,11:24:00,05-28.7300N,147-44.5700E,326,28.991,33.9078
381,2002/9/12,11:25:00,05-28.9100N,147-44.4500E,327,28.984,33.9134
382,2002/9/12,11:26:00,05-29.1100N,147-44.3200E,327,28.986,33.9153